TimeEDT,TemperatureF,Dew PointF,Humidity,Sea Level PressureIn,VisibilityMPH,Wind Direction,Wind SpeedMPH,Gust SpeedMPH,PrecipitationIn,Events,Conditions,WindDirDegrees,DateUTC
12:53 AM,64.9,62.1,90,29.82,10.0,WNW,4.6,-,N/A,,Clear,300,2013-09-04 04:53:00
1:53 AM,63.0,60.1,90,29.83,10.0,WNW,4.6,-,N/A,,Clear,300,2013-09-04 05:53:00
2:53 AM,63.0,59.0,87,29.83,10.0,WNW,5.8,-,N/A,,Clear,290,2013-09-04 06:53:00
3:53 AM,62.1,57.9,86,29.84,10.0,WNW,4.6,-,0.01,,Clear,290,2013-09-04 07:53:00
4:53 AM,61.0,57.0,87,29.85,10.0,WNW,4.6,-,N/A,,Clear,300,2013-09-04 08:53:00
5:53 AM,61.0,57.9,90,29.86,10.0,WNW,4.6,-,N/A,,Clear,300,2013-09-04 09:53:00
6:53 AM,61.0,57.9,90,29.88,10.0,WNW,3.5,-,N/A,,Clear,300,2013-09-04 10:53:00
7:53 AM,63.0,59.0,87,29.89,10.0,WNW,3.5,-,N/A,,Clear,300,2013-09-04 11:53:00
8:53 AM,69.1,60.1,73,29.91,10.0,NW,10.4,-,N/A,,Clear,310,2013-09-04 12:53:00
9:53 AM,71.1,60.1,68,29.92,10.0,WNW,9.2,-,N/A,,Clear,300,2013-09-04 13:53:00
10:53 AM,73.0,61.0,66,29.91,10.0,WNW,9.2,-,N/A,,Clear,290,2013-09-04 14:53:00
11:53 AM,75.0,61.0,62,29.91,10.0,WNW,9.2,-,N/A,,Clear,290,2013-09-04 15:53:00
12:53 PM,75.9,61.0,60,29.91,10.0,WSW,9.2,-,N/A,,Clear,250,2013-09-04 16:53:00
1:53 PM,77.0,57.9,52,29.90,10.0,WSW,10.4,-,N/A,,Clear,250,2013-09-04 17:53:00
2:53 PM,77.0,59.0,54,29.90,10.0,West,10.4,-,N/A,,Clear,260,2013-09-04 18:53:00
3:53 PM,75.0,59.0,57,29.91,10.0,WSW,10.4,18.4,N/A,,Clear,250,2013-09-04 19:53:00
4:53 PM,73.9,59.0,59,29.90,10.0,WSW,10.4,18.4,N/A,,Clear,250,2013-09-04 20:53:00
5:53 PM,72.0,59.0,64,29.90,10.0,West,9.2,19.6,N/A,,Clear,260,2013-09-04 21:53:00
6:53 PM,70.0,57.0,63,29.90,10.0,WSW,9.2,-,N/A,,Clear,250,2013-09-04 22:53:00
7:53 PM,68.0,57.9,70,29.91,10.0,WSW,8.1,-,N/A,,Clear,250,2013-09-04 23:53:00
8:53 PM,68.0,59.0,73,29.93,10.0,WSW,5.8,-,N/A,,Clear,240,2013-09-05 00:53:00
9:53 PM,64.0,59.0,84,29.94,10.0,SSW,4.6,-,N/A,,Clear,200,2013-09-05 01:53:00
10:53 PM,61.0,57.9,90,29.95,10.0,SSW,4.6,-,N/A,,Clear,200,2013-09-05 02:53:00
11:53 PM,63.0,61.0,93,29.95,10.0,SW,4.6,-,N/A,,Clear,230,2013-09-05 03:53:00